Tracking 19817 objects as of 17-Aug-2019
HD Live streaming from Space Station
objects crossing your sky now

OPS 5712 (P/L 152)

Track OPS 5712 (P/L 152) now!
10-day predictions
OPS 5712 (P/L 152) is classified as:


NORAD ID: 2873
Int'l Code: 1967-053G
Perigee: 903.2 km
Apogee: 913.8 km
Inclination: 70.0 °
Period: 103.0 minutes
Semi major axis: 7279 km
RCS: 0.648 m2 (medium)
Launch date: May 31, 1967
Source: United States (US)
Launch site: AIR FORCE WESTERN TEST RANGE (AFWTR)
aabbcc
Your satellite tracking list
Your tracking list is empty




NASA's NSSDC Master Catalog

Two Line Element Set (TLE):
1  2873U 67053G   19229.15395780 -.00000049  00000-0  33556-5 0  9993
2  2873  69.9757  11.0995 0007275 182.2075 231.0211 13.97821014660295
Source of the keplerian elements: AFSPC